Flag for Germany Weather past 2 weeks in Lüneburg, Lower Saxony, Germany

Now
36 °F

Fog.


Feels Like: 31 °F
Forecast: 35 / 40 °F
Wind: 6 mph from West

Location: Fassberg

Current Time: Jan 25, 2015 at 8:17:05 PM

Latest Report: Jan 25, 2015 at 7:45 PM


Visibility: 1 mi

Pressure: 30.30 "Hg

Humidity: 100%

Dew point: 36 °F

Location of LüneburgLocation

Historic Weather in Lüneburg — Graph

°F

Lüneburg temperature yesterday

Maximum temperature yesterday: 34 °F (at 7:20 PM)
Minimum temperature yesterday: 27 °F (at 4:20 AM)
Average temperature yesterday: 30 °F

Past Weeks' High & Low Weather Summary

 TemperatureHumidityPressure
High50 °F (Jan 15, 5:20 PM)100% (Jan 21, 1:20 AM)30.30 "Hg (Jan 21, 1:20 AM)
Low25 °F (Jan 21, 8:20 AM)57% (Jan 16, 12:00 PM)29.42 "Hg (Jan 15, 5:00 PM)
Average36 °F86%29.88 "Hg
* Reported Jan 10 6:20 PM — Jan 25 6:46 PM, Lüneburg, Weather by CustomWeather, © 2014

Note: Actual official high and low records may vary slightly from our data, if they occured in-between our weather recording intervals... More about our weather records

Advertising

Lüneburg weather history for previous 24 hours

 ConditionsComfort  
Time TempWeatherWind HumidityBarometerVisibility
6:46 PM
Jan 25
36 °FDrizzle. Fog.6 mph100%30.30 "Hg1 mi
6:20 PM36 °FLight rain. Fog.3 mph100%30.30 "Hg1 mi
6:01 PM36 °FFog.5 mph93%30.30 "Hg1 mi
5:20 PM36 °FLight rain. Fog.3 mph93%30.30 "Hg1 mi
4:20 PM36 °FLight rain. Fog.6 mph93%30.27 "Hg2 mi
3:46 PM36 °FLight rain. Fog.6 mph93%30.27 "Hg2 mi
3:20 PM36 °FLight rain. Fog.5 mph93%30.27 "Hg2 mi
2:20 PM36 °FLight rain. Fog.7 mph93%30.27 "Hg3 mi
1:55 PM36 °FLight rain. Fog.6 mph93%30.27 "Hg2 mi
1:20 PM36 °FLight rain. Fog.6 mph93%30.27 "Hg2 mi
12:20 PM34 °FLight rain. Fog.5 mph100%30.30 "Hg2 mi
11:20 AM34 °FFog.6 mph93%30.30 "Hg3 mi
10:20 AM32 °FIce fog.5 mph100%30.30 "Hg3 mi
9:20 AM32 °FIce fog.5 mph93%30.27 "Hg3 mi
8:20 AM30 °FPartly sunny.6 mph93%30.27 "Hg4 mi
7:20 AM30 °FPassing clouds.6 mph93%30.24 "Hg4 mi
6:20 AM28 °FPartly cloudy.5 mph93%30.24 "Hg4 mi
5:20 AM30 °FPassing clouds.6 mph93%30.24 "Hg4 mi
4:20 AM28 °FPassing clouds.6 mph93%30.21 "Hg4 mi
3:20 AM28 °FPassing clouds.5 mph93%30.21 "Hg5 mi
2:20 AM30 °FPassing clouds.7 mph93%30.21 "HgN/A
1:20 AM28 °FPassing clouds.5 mph100%30.21 "Hg5 mi
12:20 AM28 °FChilly.6 mph100%30.18 "Hg4 mi
11:20 PM
Jan 24
30 °FIce fog.6 mph93%30.18 "Hg3 mi
10:20 PM30 °FIce fog.6 mph93%30.15 "Hg2 mi
9:20 PM30 °FIce fog.5 mph100%30.15 "Hg1 mi
8:20 PM32 °FIce fog.7 mph100%30.12 "Hg1 mi
Weather by CustomWeather, © 2014

See weather overviewHow to use our weather pages